Left ArrowRight Arrow

40.92501, -98.34201

Hourly Observations for June 25, 2024

Temp ( °F °C ) Dew Point ( °F °C ) Humidity (%) Winds ( mph kmh ) Pressure ( in mb ) Visibility ( mi km ) Precip ( " mm )
12:53 am 00:53 Clear 78 25.6 58 14.4 50 50 WNW 13 20 29.75 1007 10 16 0.00 0.00
1:53 am 01:53 Mostly Clear 79 26.1 58 14.4 49 49 W 9 15 29.75 1008 10 16 0.00 0.00
2:53 am 02:53 Clear 77 25 60 15.6 56 56 W 6 9 29.75 1007 10 16 0.00 0.00
3:53 am 03:53 Clear 74 23.3 61 16.1 64 64 Calm 29.75 1007 10 16 0.00 0.00
4:53 am 04:53 Clear 73 22.8 60 15.6 64 64 SW 7 11 29.76 1008 10 16 0.00 0.00
5:53 am 05:53 Clear 73 22.8 61 16.1 66 66 W 6 9 29.77 1008 10 16 0.00 0.00
6:53 am 06:53 Sunny 75 23.9 64 17.8 69 69 Calm 29.78 1008 10 16 0.00 0.00
7:53 am 07:53 Sunny 81 27.2 68 20 65 65 S 5 7 29.77 1008 10 16 0.00 0.00
8:53 am 08:53 Sunny 85 29.4 68 20 57 57 Calm 29.78 1008 10 16 0.00 0.00
9:53 am 09:53 Sunny 89 31.7 N/A N/A SW 17 28 29.78 1008 10 16 0.00 0.00
10:53 am 10:53 Mostly Sunny 89 31.7 64 17.8 44 44 undefined N/A 29.78 1008 N/A 0.00 0.00
11:53 am 11:53 Mostly Sunny 91 32.8 65 18.3 42 42 undefined N/A 29.78 1008 N/A 0.00 0.00
12:53 pm 12:53 Sunny 92 33.3 67 19.4 44 44 SSW 7 11 29.78 1009 10 16 0.00 0.00
1:53 pm 13:53 Sunny 93 33.9 68 20 44 44 S 5 7 29.77 1008 10 16 0.00 0.00
2:53 pm 14:53 Sunny 95 35 69 20.6 43 43 SW 14 22 29.76 1008 10 16 0.00 0.00
3:53 pm 15:53 Sunny 95 35 69 20.6 43 43 S 9 15 29.75 1007 10 16 0.00 0.00
4:53 pm 16:53 Sunny 97 36.1 68 20 39 39 SSW 9 15 29.74 1007 10 16 0.00 0.00
5:53 pm 17:53 Sunny 97 36.1 67 19.4 38 38 S 9 15 29.72 1006 10 16 0.00 0.00
6:53 pm 18:53 Sunny 96 35.6 67 19.4 39 39 S 7 11 29.71 1006 10 16 0.00 0.00
7:53 pm 19:53 Sunny 91 32.8 72 22.2 54 54 ESE 6 9 29.72 1006 10 16 0.00 0.00
8:53 pm 20:53 Mostly Cloudy 87 30.6 72 22.2 61 61 ESE 8 13 29.70 1006 10 16 0.00 0.00
9:53 pm 21:53 Mostly Cloudy 83 28.3 73 22.8 72 72 NE 6 9 29.74 1007 10 16 0.00 0.00
10:53 pm 22:53 Clear 79 26.1 69 20.6 72 72 NE 10 17 29.79 1009 10 16 0.00 0.00
11:53 pm 23:53 Clear 75 23.9 65 18.3 71 71 NNE 14 22 29.82 1010 10 16 0.00 0.00

Powered by Vaisala Xweather